O/OREOS (USA 219)

Last updated on Sun Apr 12 2026 00:03:15 GMT+0000 (Coordinated Universal Time)

1 37224U 10062C 26101.42101780 .00002276 00000+0 22172-3 0 9993 2 37224 71.9706 231.5381 0015280 200.7638 159.2914 14.93479794106673
UTC large
Height (km)
Speed (km/s)
/
Latitude / Longitude
Inclination (degrees)
Orbital Period (minutes)
Azimuth
Elevation
Range (km)
Doppler Factor

Next 0 passes for location: London (51.5072 / 0.1276)

Sorry there are no passes over London.
O/OREOS (USA 219)